Regional Weather Roundup
Issued by NWS Green Bay, WI

Home | Current Version | Previous Version | Text Only | Print | Product List | Glossary On
Versions: 1 2 3 4 5 6 7 8 9 10 11 12 13 14 15 16 17 18 19 20 21 22 23 24 25 26 27 28 29 30 31 32 33 34 35 36 37 38 39 40 41 42 43 44 45 46 47 48 49 50
000
ASUS43 KGRB 281711
RWRGRB

NORTH-CENTRAL AND NORTHEAST WISCONSIN REGIONAL WEATHER ROUNDUP
NATIONAL WEATHER SERVICE GREEN BAY WI
1200 PM CDT SAT MAY 28 2016

WIZ005-009-010>012-018-019-281800-
NORTH CENTRAL WISCONSIN

CITY           SKY/WX    TMP DP  RH WIND       PRES   REMARKS
IRONWOOD       CLOUDY    64  64 100 NW3       29.75S
MANITOWISH WTR NOT AVBL
ARBOR VITAE    CLOUDY    69  67  93 SE5       29.78F
EAGLE RIVER    LGT RAIN  70  66  89 CALM      29.79S
LAND O LAKES   CLOUDY    69  65  87 E3        29.80F
RHINELANDER    LGT RAIN  69  65  86 SE5       29.79S FOG
PHILLIPS       CLOUDY    71  66  83 CALM      29.76F
ANTIGO         CLOUDY    67  66  96 S13G22    29.80S
TOMAHAWK       RAIN      67  65  93 CALM      29.78S
MERRILL        CLOUDY    70  68  94 S10G18    29.77F
$$

WIZ013-073-281800-
NORTHEAST WISCONSIN

CITY           SKY/WX    TMP DP  RH WIND       PRES   REMARKS
IRON MOUNTAIN  CLOUDY    69  66  90 SE8       29.79S FOG
MARINETTE      CLOUDY    70  64  83 S9        29.83R
OCONTO         CLOUDY   N/A N/A N/A S6        29.81S
$$

WIZ017-030-035>037-045-281800-
CENTRAL WISCONSIN

CITY           SKY/WX    TMP DP  RH WIND       PRES   REMARKS
MEDFORD        CLOUDY    68  68 100 SE7       29.76S
WAUSAU         CLOUDY    72  66  81 S14       29.75S
MOSINEE        CLOUDY    70  68  94 S17G24    29.78S
MARSHFIELD     CLOUDY    72  66  81 SW15      29.76R
WISC RAPIDS    CLOUDY    72  64  76 SW17G24   29.80R
STEVENS POINT  CLOUDY    69  64  86 S15G24    29.80R
WAUPACA        CLOUDY    75  68  78 S15       29.81R
SHAWANO        CLOUDY    74  68  80 S5        29.80F
CLINTONVILLE   CLOUDY    72  64  78 S15G21    29.80S
WAUTOMA        CLOUDY    73  65  75 SW14G22   29.82R
$$

WIZ038-039-048-051-281800-
FOX VALLEY

CITY           SKY/WX    TMP DP  RH WIND       PRES   REMARKS
NWS GREEN BAY  CLOUDY    75  65  70 S16G30    29.82R
APPLETON       CLOUDY    73  63  68 SW17      29.81R
OSHKOSH        CLOUDY    75  65  70 SW20G25   29.82R
FOND DU LAC    CLOUDY    75  67  76 S18G28    29.83R
$$

WIZ022-050-052-281800-
EAST CENTRAL WISCONSIN

CITY           SKY/WX    TMP DP  RH WIND       PRES   REMARKS
EPHRAIM        FAIR      67  62  82 S10G16    29.84S
STURGEON BAY   NOT AVBL
MANITOWOC      CLOUDY    68  62  81 S16       29.86R
SHEBOYGAN      CLOUDY    74  66  76 S9        29.85S
$$

LMZ563-521-522-541>543-281800-
LAKESHORE

STATION/POSITION TIME  TEMP    WIND        PRES    VSBY  WAVE
                       AIR SEA DIR/SP/G                  HT/PER
                 (UTC) (F)     (DEG/KT/KT) (MB)    (MI)  (FT/S)
SHEBOYGAN LKSHOR 1700   58     170/ 24/ 26 1011.2S
KEWAUNEE LKSHORE 1600   53     180/ 11/ 12 1010.3R
ALGOMA MARINA    1617          210/  6/  8   N/A
NORTHPORT PIER   1600   62     150/ 12/ 17 1010.8S
N MID LAKE BUOY  1650   54 46  190/ 16/ 17 1011.2R         2/ 5
SISTER BAY LKSHO 1605   68     190/ 16/ 21   N/A
CHAMBERS ISLAND  1600   68     140/  8/ 18 1010.2S
MENOMINEE LKSHOR 1600   64     150/ 10/ 12 1008.8F
$$




USA.gov is the U.S. government's official web portal to all federal, state and local government web resources and services.